Regional Weather Roundup
Issued by NWS

Home | Current Version | Previous Version | Graphics & Text | Print | Product List | Glossary On
Versions: 1 2 3 4 5 6 7 8 9 10 11 12 13 14 15 16 17 18 19 20 21 22 23 24 25 26 27
000
ASUS45 KBOU 261607
RWRCO

WEATHER ROUNDUP FOR COLORADO
NATIONAL WEATHER SERVICE DENVER/BOULDER CO
1000 AM MDT SUN MAR 26 2017

NOTE: "FAIR" INDICATES FEW OR NO CLOUDS BELOW 12000 FEET WITH NO
SIGNIFICANT WEATHER AND/OR OBSTRUCTIONS TO VISIBILITY.

COZ001>005-013-030-031-261700-
...NORTHWEST COLORADO...

CITY           SKY/WX    TMP DP  RH WIND       PRES   REMARKS
CRAIG          CLOUDY    39  29  67 SW9       30.00S
HAYDEN         CLOUDY    36  27  69 SW8       29.99S
MEEKER         CLOUDY    40  28  62 NE9       30.00S
MOUNT WERNER   NOT AVBL
STEAMBOAT SPGS CLOUDY    32  30  92 SE6       29.99S WCI  26
WALDEN         NOT AVBL
$$

COZ006>008-011-261700-
...WEST CENTRAL VALLEYS...

CITY           SKY/WX    TMP DP  RH WIND       PRES   REMARKS
GRAND JUNCTION PTSUNNY   52  34  50 NE5       29.96R
MONTROSE       PTSUNNY   45  38  76 VRB5      29.98S
EAGLE          MOSUNNY   41  34  75 CALM      29.98R
RIFLE          PTSUNNY   46  30  53 NW12      29.96S
DELTA          FAIR      50  40  68 NE3       29.96R
NUCLA          FAIR      43  36  75 CALM      30.01S
$$

COZ017>023-064>068-261700-
...SOUTHWEST COLORADO...

CITY           SKY/WX    TMP DP  RH WIND       PRES   REMARKS
DURANGO        FAIR      43  33  68 CALM      29.94R
CORTEZ         PTSUNNY   45  37  73 W10       29.97S
PAGOSA SPRINGS CLOUDY    38  30  72 CALM      29.96R
TELLURIDE      LGT SNOW  32  32  99 W8        30.00R WCI  25
WOLF CREEK PAS PTSUNNY   23  21  93 NW7       30.04R WCI  15
$$

COZ009-010-012-014-032>034-037-058>063-261700-
...CENTRAL COLORADO...

CITY           SKY/WX    TMP DP  RH WIND       PRES   REMARKS
ASPEN          CLOUDY    36  33  89 N7        29.96R
BUENA VISTA    FAIR      46  21  36 N22G28    29.88R
COPPER MTN     CLOUDY    27  21  80 MISG      30.00R HAZE
BERTHOUD PASS  CLOUDY    19   9  63 NW25G31   29.98R WCI   2
COTTONWOOD PAS PTSUNNY   43  14  31 SW10G18   29.93R
GUNNISON       FAIR      41  32  70 SW13      29.94R
KREMMLING      FAIR      45  36  70 W7        29.96S
LEADVILLE      PTSUNNY   33  20  58 N16G22    29.95R WCI  23
MONARCH PASS   FOG       23  21  93 W10       30.08R VSB 1   WCI  12
SALIDA         FAIR      48  27  43 CALM      29.95R
SUNLIGHT       FOG      N/A N/A N/A CALM      30.04S VSB<1/4
WILKERSON PASS CLOUDY    28  25  86 NE9       29.98R FOG     WCI  20
$$

COZ069>075-261700-
...SAN LUIS VALLEY/SANGRE DE CRISTO MOUNTAINS...

CITY           SKY/WX    TMP DP  RH WIND       PRES   REMARKS
ALAMOSA        FAIR      41  35  79 CALM      29.90R
LA VETA PASS   NOT AVBL
SAGUACHE       FAIR      43  30  61 NW15      29.91R
$$

COZ035-036-038>040-261700-
...NORTHERN COLORADO FRONT RANGE...

CITY           SKY/WX    TMP DP  RH WIND       PRES   REMARKS
DENVER INTL AP LGT RAIN  42  30  62 N13       29.87R
DMNS CITY PARK   N/A     46  33  61 N5G15     29.90R
AURORA         CLOUDY    46  33  61 N16       29.88R
FRONT RANGE AP PTSUNNY   43  34  70 N10G20    29.87R
ERIE MUNI ARPT FAIR      47  36  64 N6        29.89S
BOULDER MUN AP CLOUDY    48  36  61 CALM      29.89R
CENTENNIAL     CLOUDY    44  32  62 N12       29.88R
BROOMFIELD     PTSUNNY   46  36  66 N6        29.90R
FORT COLLINS   FAIR      51  36  56 NE16      29.88R
LONGMONT       PTSUNNY   54  38  54 CALM      29.90R
$$

COZ041-046-047-076>085-087-088-261700-
...PIKES PEAK/PALMER DIVIDE AND SOUTHERN FOOTHILLS...

CITY           SKY/WX    TMP DP  RH WIND       PRES   REMARKS
COLO. SPRINGS  PTSUNNY   46  33  60 NW25G38   29.84R
A. F. ACADEMY  FAIR      41  33  73 NW24G31   29.84S
SCHRIEVER AFB  FAIR      43  32  64 N25G40    29.83R
ELLICOTT         N/A    N/A N/A N/A N25G33    29.81R
FALCON         FAIR      40  32  71 N23G35    29.85R
FORT CARSON    PTSUNNY   46  32  58 N28G38    29.82R
LIMON          CLOUDY    41  37  86 N13       29.83R
MONUMENT HILL  PTSUNNY   36  30  80 N17G23    29.90R
TRINIDAD       LGT RAIN  40  35  83 NW21G29   29.84R
$$

COZ042>045-048>051-090-091-261700-
...NORTHEAST COLORADO...

CITY           SKY/WX    TMP DP  RH WIND       PRES   REMARKS
GREELEY ARPT   LGT RAIN  50  35  56 NE16      29.88R
AKRON          CLOUDY    42  38  85 N5        29.87R
BURLINGTON     FAIR      45  41  86 E16       29.82R
WRAY           CLOUDY    41  41 100 NE14      29.85
STERLING       CLOUDY    43  37  81 CALM      29.87R
HOLYOKE        CLOUDY    43  41  93 NE6       29.88F
FORT MORGAN    CLOUDY    46  32  57 E9        29.88R
$$

COZ086-089-092>099-261700-
...SOUTHEAST COLORADO...

CITY           SKY/WX    TMP DP  RH WIND       PRES   REMARKS
PUEBLO         LGT RAIN  51  36  56 N20G30    29.81R
LA JUNTA       CLOUDY    44  36  73 N14       29.80R
LAMAR          CLOUDY    42  36  79 E9        29.76S
SPRINGFIELD      N/A     48  32  53 NW24G31   29.72R
$$




USA.gov is the U.S. government's official web portal to all federal, state and local government web resources and services.